User: anonymous   Login
Location: Unspecified
(0.0000°N, 0.0000°E)
Time: 00:05:46
(UTC+00:00)
Language:

Quikscat - Orbit

View from above orbital plane
View from above orbital plane
View from above satellite
View from above satellite

Ground track
Ground track

The orbit data is extracted from the following two-line orbital elements,

1 25789U 99034A   18112.54660546 -.00000013  00000-0  12565-4 0  9993
2 25789  98.6054 301.2757 0001202 129.8089 230.3198 14.27322704981323
Epoch (UTC): 22 April 2018 13:07:06
Eccentricity: 0.0001202
inclination: 98.6054°
perigee height: 800 km
apogee height: 801 km
right ascension of ascending node: 301.2757°
argument of perigee: 129.8089°
revolutions per day: 14.27322704
mean anomaly at epoch: 230.3198°
orbit number at epoch: 98132

The dashed part of the orbit path shows where the satellite is in the earth's shadow,  

DLR